Theta_e
292 292 295 292 291 290 290 290 290 291 292 293 292 290 292 293 294 296 297 296 297 295 295 294 294 293 294 294 296 296 297 297 299 302 303 304 304 304 304 305 307 306 306 306 305 306 306 305 308 309 308 305 304 302
291 291 292 292 291 290 289 290 290 291 294 292 291 289 291 292 293 295 296 296 296 295 296 295 295 296 295 295 296 296 297 297 299 299 300 300 302 302 302 306 305 307 307 306 307 308 302 301 301 298 300 299 299 298
290 291 292 291 291 289 290 290 290 291 293 292 291 289 291 293 293 294 296 296 296 295 295 295 296 296 296 295 295 295 295 297 298 298 298 299 302 302 303 303 304 303 301 305 305 303 299 297 297 295 295 294 294 295
290 290 290 290 289 289 289 289 290 293 292 291 290 290 292 292 294 294 295 296 296 296 295 295 296 296 296 296 296 295 294 296 298 298 299 299 300 301 303 303 303 301 300 300 304 300 298 295 294 294 294 293 293 293
290 290 290 289 289 289 289 290 290 292 291 289 291 292 293 293 294 295 295 296 295 297 296 295 296 297 297 296 295 295 295 297 297 297 300 301 300 301 303 302 299 298 298 299 301 296 296 293 292 293 293 292 291 289
290 291 290 289 289 290 289 290 292 291 290 290 293 294 295 295 295 296 295 295 297 297 297 297 296 296 297 296 295 295 297 296 296 299 300 300 300 302 302 302 296 295 295 294 296 295 293 292 290 290 290 289 289 289
290 290 290 290 289 288 289 291 291 290 289 292 296 297 297 297 296 295 297 297 297 296 296 296 295 298 297 296 295 295 295 295 297 298 300 299 300 301 302 302 294 294 293 292 293 294 293 291 289 288 288 288 287 286
288 289 289 290 288 288 289 290 290 289 293 295 297 297 297 296 296 296 297 297 296 296 296 296 296 297 298 298 296 297 296 298 298 299 299 300 301 300 301 293 291 291 292 291 291 291 290 289 289 287 286 286 286 284
289 290 289 288 288 288 289 290 290 290 294 296 297 298 297 297 297 297 297 295 296 296 295 296 296 298 298 298 298 298 298 298 298 300 299 299 299 300 292 291 290 288 288 288 289 288 288 287 286 286 285 284 283 282
288 289 289 288 288 290 290 290 289 293 295 296 297 299 298 298 297 296 296 295 296 295 296 297 295 298 299 298 297 297 297 298 298 298 298 300 296 289 288 287 287 286 286 287 289 288 286 285 283 282 282 282 282 281
288 288 287 287 289 290 289 289 292 293 295 296 297 296 297 297 297 296 296 296 295 297 296 296 296 298 298 300 299 297 297 296 299 299 299 298 295 289 286 286 285 285 284 284 284 283 283 284 282 281 280 280 281 280
288 288 288 289 289 290 289 290 292 294 296 296 297 296 297 297 297 296 295 296 296 296 296 296 296 298 298 300 299 297 299 298 299 299 299 297 289 286 285 284 284 284 283 283 282 281 281 281 282 281 281 280 280 280
288 288 289 290 290 289 289 292 293 295 296 297 297 297 297 296 298 295 295 297 297 295 295 296 299 298 299 298 299 299 299 300 297 298 297 289 286 285 284 283 283 282 282 282 281 281 281 280 280 280 280 280 279 279
289 290 290 290 290 291 291 293 294 295 297 298 297 298 294 293 294 291 294 293 295 296 297 298 297 299 299 298 299 299 297 297 298 296 295 287 285 284 283 282 282 282 281 281 281 280 280 280 280 280 279 279 278 278
290 291 292 293 294 294 294 294 295 295 297 295 295 296 292 290 291 292 295 295 297 297 299 298 298 298 295 296 294 294 298 299 296 296 286 284 284 283 282 282 282 281 281 282 281 282 281 281 280 280 279 278 278 278
293 297 298 297 298 298 297 296 294 296 293 292 291 289 290 292 292 294 295 295 297 298 298 299 294 295 293 292 295 296 297 297 291 284 283 284 283 282 282 281 281 281 281 281 280 280 279 279 279 279 279 278 278 277
296 297 298 298 298 297 297 296 295 291 291 289 287 288 289 289 291 292 295 295 297 298 296 292 292 294 290 289 291 287 290 285 281 283 284 284 283 282 282 281 281 280 280 280 280 279 279 279 278 278 278 278 277 277
294 295 297 297 297 296 296 294 291 289 287 288 287 287 287 288 289 291 294 295 297 295 293 291 290 290 290 291 289 282 280 282 283 283 283 282 282 281 281 281 281 280 280 279 279 279 278 278 278 277 277 277 277 276
294 295 296 297 297 297 292 290 289 287 288 287 287 287 287 287 288 289 293 294 293 292 292 287 285 287 285 281 280 281 282 283 282 282 282 281 281 281 281 280 280 280 279 279 279 278 278 277 277 277 277 276 276 275
296 296 297 298 298 295 290 289 289 289 287 288 288 287 286 286 287 287 288 290 291 290 286 284 283 282 282 283 284 284 284 283 282 281 281 281 280 280 280 280 279 279 279 278 278 278 277 277 276 276 276 275 275 274
294 292 292 296 293 290 290 289 288 288 288 287 287 287 286 286 286 287 288 288 287 282 282 282 282 284 284 285 284 284 283 283 283 283 282 280 280 280 279 279 279 279 278 278 277 277 277 276 275 275 274 274 273 273
292 292 292 293 291 290 289 289 289 288 288 288 288 287 286 284 284 284 284 284 281 281 282 283 283 284 284 283 283 283 282 282 282 282 281 280 280 280 279 279 278 278 277 277 277 276 276 275 274 273 272 272 272 271
292 295 293 292 291 290 289 290 290 289 287 288 287 286 284 283 283 284 281 281 281 282 283 283 283 283 283 282 282 282 282 282 281 281 280 280 279 279 278 278 277 276 276 275 275 275 274 273 273 272 272 271 271 271
295 292 291 292 291 286 290 290 290 289 289 287 286 284 284 283 282 281 280 279 281 282 283 283 283 283 283 282 282 282 282 281 281 280 279 279 278 277 276 276 275 275 275 274 274 274 273 273 272 272 271 271 270 270
293 287 289 283 289 284 281 279 281 284 280 280 281 281 281 283 280 277 279 280 281 282 283 283 283 283 283 282 282 281 280 280 279 279 278 277 277 276 276 275 275 275 275 274 274 273 273 272 272 271 271 270 270 270
283 284 285 282 283 284 282 281 278 279 279 278 279 282 282 278 277 278 279 280 281 282 282 282 282 281 281 281 280 279 279 278 278 278 277 277 276 275 274 274 274 274 274 273 273 272 271 271 270 270 270 270 270 269
281 280 283 283 285 285 281 283 283 279 277 279 279 276 277 276 276 278 279 280 281 282 282 282 282 281 281 279 279 279 278 278 278 277 277 275 274 274 274 274 273 273 272 271 271 271 270 270 270 270 269 269 269 269
281 282 281 279 279 279 273 272 272 274 276 280 278 274 276 275 277 279 280 281 282 281 281 280 280 280 279 279 279 279 278 278 277 276 274 274 274 273 273 273 272 272 271 271 270 270 270 270 270 269 269 269 269 269
279 279 280 271 275 275 274 272 274 277 277 278 273 273 275 276 277 279 280 281 281 281 280 281 280 280 280 279 279 278 277 275 274 274 274 273 273 273 272 272 271 271 271 270 270 270 270 270 270 269 269 269 268 268
279 279 276 274 270 273 275 275 276 277 277 277 276 275 275 275 277 279 280 280 281 281 281 281 281 280 280 279 277 276 275 274 274 274 273 273 272 272 272 271 271 271 270 270 270 270 270 270 269 269 269 269 269 268
278 278 276 275 274 276 276 276 276 277 277 277 277 276 275 276 277 279 280 281 281 281 281 280 280 278 277 276 275 274 274 274 274 273 273 272 272 271 271 271 271 271 270 270 270 270 270 270 269 269 269 268 268 268
278 277 275 271 276 277 277 277 277 277 277 277 277 277 277 277 276 277 278 279 279 280 279 278 278 277 276 275 275 274 274 274 273 272 272 272 272 271 271 271 270 270 270 270 270 270 269 269 269 269 268 268 268 268
278 277 277 277 276 276 277 277 277 277 277 277 277 277 276 276 275 276 277 277 277 277 277 277 276 276 275 274 274 274 274 273 272 272 272 272 271 271 271 271 271 270 270 270 269 269 269 269 268 268 268 268 267 267
Wind_Speed
22 22 26 21 21 14 18 18 19 20 14 18 14 13 18 15 13 11 12 12 17 6 12 13 8 10 9 6 2 7 5 4 5 5 4 3 3 3 2 2 3 2 1 1 2 3 3 16 6 4 2 12 10 11
22 25 22 18 16 15 19 17 21 18 16 14 15 14 18 15 14 13 9 11 9 16 9 10 12 15 17 12 4 3 1 2 3 2 3 2 1 3 4 2 4 2 4 2 3 3 9 14 10 12 14 12 14 14
20 24 24 20 17 18 19 20 21 16 17 17 17 15 17 14 14 16 13 11 15 13 17 18 16 10 16 22 20 4 2 2 2 3 2 2 2 3 2 2 4 3 7 2 2 5 8 14 14 16 17 15 15 14
21 23 22 18 17 20 20 23 23 16 16 18 16 16 16 19 15 17 18 16 14 5 3 6 5 5 4 11 21 21 19 8 2 4 2 2 2 1 1 3 1 2 6 4 1 4 4 15 14 11 13 14 14 13
21 22 21 17 20 17 20 23 21 19 17 14 14 15 16 17 18 16 19 21 21 13 3 6 12 9 6 10 11 16 14 13 2 4 2 2 2 2 1 0 1 3 3 2 3 7 5 5 9 11 13 14 13 10
22 21 20 17 21 18 24 21 18 17 18 18 19 18 16 16 18 14 8 23 26 24 5 2 4 2 3 8 8 19 13 12 7 3 4 3 3 1 1 1 2 3 5 10 4 5 10 9 9 10 12 13 11 10
23 21 21 21 21 21 24 19 18 17 18 18 12 8 14 20 24 21 5 3 12 24 4 3 3 0 1 8 9 8 10 8 6 4 3 2 3 2 2 2 6 4 5 8 9 6 8 8 6 7 8 9 9 9
22 22 23 22 20 18 28 21 18 17 18 11 8 11 13 20 22 24 7 2 11 13 4 1 2 1 7 4 4 6 7 6 5 3 2 3 2 0 2 5 5 3 2 5 8 8 6 4 4 6 6 6 6 8
21 22 20 18 19 24 26 21 18 19 18 12 11 14 23 19 13 9 9 9 17 3 5 2 2 2 7 4 4 5 5 2 3 3 3 4 1 4 2 7 5 5 3 4 3 5 5 4 4 5 5 5 5 6
20 22 22 18 23 23 20 19 20 18 13 10 16 9 7 12 15 24 12 8 7 4 4 3 4 2 6 3 2 3 2 2 3 4 4 3 1 6 5 6 4 3 4 5 3 2 5 5 5 5 7 6 6 7
21 21 21 24 28 22 19 21 20 19 10 14 7 4 21 25 14 4 5 4 5 3 6 5 11 3 6 2 3 4 2 2 2 3 4 3 2 4 7 5 3 3 4 5 4 4 4 2 3 5 6 7 7 7
21 22 22 24 25 23 21 27 22 17 9 14 10 15 28 6 4 4 3 4 4 4 5 5 7 4 5 5 2 4 3 3 4 6 3 2 2 9 8 4 2 2 2 2 3 3 4 4 4 4 6 8 8 8
21 23 24 24 24 23 25 26 21 19 20 20 7 8 7 4 3 6 7 3 4 6 8 8 4 8 4 5 2 2 3 3 2 1 2 1 9 8 6 3 2 3 3 3 4 5 7 9 10 11 12 13 10 9
21 24 26 28 30 30 32 29 23 21 11 5 6 6 4 4 4 4 4 4 4 8 17 15 7 3 3 2 1 4 1 1 1 2 3 3 10 9 6 4 4 7 7 8 9 10 11 10 11 11 11 11 9 9
23 26 26 29 31 33 34 33 28 31 6 4 4 4 5 3 3 8 10 8 9 16 19 9 5 3 1 1 1 2 2 3 3 2 2 10 12 9 7 6 7 8 8 9 10 10 10 9 8 8 9 9 8 7
9 14 15 22 24 31 38 37 34 23 5 4 4 3 3 4 5 8 10 10 14 18 12 4 3 2 2 2 3 5 4 4 1 2 12 16 12 10 9 8 8 8 8 8 9 9 9 8 7 6 6 5 4 4
21 22 33 31 31 36 47 41 20 5 5 3 2 5 4 4 5 7 10 9 19 14 2 3 4 4 3 1 2 2 1 1 7 16 16 12 11 11 10 10 9 8 8 8 7 7 7 6 5 4 3 2 2 2
35 39 38 41 44 49 34 10 7 5 4 3 4 5 6 7 10 9 8 13 9 7 5 2 5 2 3 3 2 3 4 14 17 15 14 14 13 11 9 9 9 8 7 7 7 5 4 3 2 2 2 2 3 4
37 39 41 32 29 22 7 5 4 5 4 6 10 8 9 12 12 10 11 11 8 9 10 4 4 1 2 2 3 12 21 22 21 18 16 13 11 10 10 9 8 7 6 5 4 3 1 1 3 3 4 6 7 9
26 28 30 21 19 6 6 5 5 7 4 4 7 7 7 8 10 12 11 12 11 5 5 3 1 1 2 4 12 23 20 20 21 20 15 13 11 9 8 6 5 5 5 4 2 1 1 2 4 5 7 8 9 8
27 24 18 15 11 8 6 4 6 6 8 7 10 5 6 7 6 5 6 5 4 3 3 3 6 10 14 17 18 16 16 14 13 9 15 14 11 9 6 5 4 4 3 3 2 2 4 5 7 9 10 10 10 8
21 16 14 9 7 5 7 6 9 8 5 8 5 5 5 3 3 3 4 7 4 3 5 12 17 19 20 18 17 16 16 11 9 12 11 9 10 7 5 3 3 4 4 5 5 6 6 7 9 10 10 9 7 5
12 7 6 5 5 5 5 4 4 3 3 4 4 3 2 3 3 4 5 3 3 7 17 20 20 19 21 20 18 15 12 11 11 10 9 9 8 6 4 3 2 2 3 4 4 5 6 7 7 8 9 8 7 5
4 4 4 4 5 3 6 3 4 5 5 2 2 3 2 4 4 4 3 2 9 17 19 20 20 20 18 15 14 13 11 9 8 9 8 5 4 3 2 1 0 1 2 4 4 6 7 8 9 9 8 8 7 8
3 7 4 5 4 4 4 3 2 3 2 2 3 1 2 4 2 1 3 6 19 20 20 19 17 15 18 17 15 13 11 7 6 6 6 4 2 0 1 3 4 5 6 7 8 9 10 10 11 10 9 9 9 9
6 8 4 1 2 4 3 3 2 4 3 2 2 4 3 3 3 2 3 15 22 23 22 18 17 17 15 12 14 13 10 8 5 4 3 2 2 3 5 6 7 8 9 10 10 10 10 11 10 10 9 10 10 11
4 3 5 5 4 6 5 6 5 4 3 3 3 2 3 3 2 2 8 17 21 21 17 13 11 11 14 15 13 10 7 5 3 1 0 1 2 3 4 4 6 7 8 8 8 8 7 8 7 7 9 10 11 11
4 4 4 5 8 8 4 3 3 2 1 2 4 3 4 4 3 5 7 18 20 22 20 17 12 12 12 12 9 6 5 3 2 1 1 2 4 5 5 6 7 7 6 7 7 7 7 7 7 8 8 8 9 10
5 4 4 5 6 7 7 2 1 2 2 1 3 2 3 3 5 10 19 20 21 21 20 17 14 12 10 9 7 6 6 4 1 2 3 4 5 6 6 7 7 7 7 8 8 8 8 8 8 9 10 11 11 12
3 4 6 4 4 3 5 3 3 5 6 7 7 9 9 10 12 18 21 21 18 15 13 11 11 9 6 5 7 6 4 2 1 2 3 4 4 4 5 6 6 6 6 6 7 8 9 10 11 11 12 13 14 15
4 4 6 5 4 10 16 16 12 6 4 8 13 20 14 10 14 14 16 15 14 13 14 14 12 9 6 6 5 4 3 0 2 3 4 4 5 5 5 5 5 6 6 7 8 9 10 12 13 14 16 17 17 19
3 4 6 4 3 8 5 3 5 7 7 10 8 9 12 6 5 6 13 14 13 12 11 9 7 8 7 6 5 2 1 2 3 3 4 5 5 5 5 5 6 7 8 10 11 12 14 15 16 18 19 20 20 21
5 9 9 7 6 6 6 5 4 4 4 3 3 2 4 4 4 6 12 13 13 10 11 11 10 8 7 5 4 2 2 2 2 3 3 4 4 5 6 7 8 10 11 13 14 15 17 18 20 21 22 23 23 23
Wind_Direction
230 235 220 214 237 266 235 231 226 215 234 240 246 242 221 226 227 235 239 233 224 223 264 251 257 250 279 291 263 316 338 14 2 34 4 1 5 17 312 12 353 31 54 114 162 216 281 358 343 11 353 43 48 57
242 245 233 225 242 258 246 231 216 212 244 248 256 250 223 225 225 237 251 238 272 238 264 267 270 275 253 248 266 6 288 296 345 338 16 320 347 6 5 55 9 66 15 348 347 29 13 38 49 27 54 65 54 77
235 232 229 232 249 260 238 222 207 230 238 250 257 241 217 221 224 229 238 234 221 241 277 270 282 284 255 242 232 247 280 307 330 21 325 324 314 325 18 1 348 49 31 328 335 64 48 41 51 49 56 63 67 72
230 235 241 238 243 242 231 217 210 235 244 259 245 216 221 224 223 226 232 239 237 249 272 279 295 305 314 235 226 236 248 281 298 350 315 301 283 301 350 316 326 352 335 338 340 46 127 39 41 48 60 62 60 69
227 229 227 233 238 239 226 204 220 237 248 242 216 215 214 214 220 224 233 238 238 228 247 288 299 319 282 236 229 220 218 211 297 335 275 236 264 290 237 136 65 8 11 6 46 341 94 52 45 47 53 52 54 54
227 228 224 228 223 232 208 215 231 240 246 227 220 218 217 212 209 225 240 246 239 234 237 281 271 293 295 208 202 205 201 212 244 273 250 275 280 251 334 280 91 67 59 37 65 45 96 94 61 49 49 43 44 50
225 223 223 218 220 222 215 224 232 238 237 221 229 270 229 205 197 196 212 250 204 217 199 271 311 280 335 165 171 184 202 203 203 220 245 247 275 207 220 253 135 69 65 49 40 129 84 61 69 46 34 33 27 47
222 223 225 227 229 230 216 229 233 236 215 228 213 189 178 181 197 204 208 263 176 179 181 246 268 287 182 155 134 156 158 187 207 223 257 242 219 138 248 132 116 73 143 39 51 61 91 98 61 46 43 38 35 50
219 217 223 230 235 207 213 227 239 217 207 217 194 178 172 176 170 182 160 137 163 152 166 211 224 211 172 159 136 156 164 160 202 212 234 180 175 227 101 146 103 47 66 4 90 92 76 64 49 45 37 45 58 57
216 218 222 222 203 210 219 232 209 208 208 202 158 151 157 143 153 128 135 154 185 222 213 238 210 213 179 130 114 122 161 185 199 226 169 216 203 115 114 117 106 58 17 18 147 23 42 62 65 60 55 66 76 83
221 227 228 213 211 217 223 206 204 200 195 185 174 118 142 153 142 121 136 166 172 219 214 227 202 150 187 171 148 204 184 186 237 185 195 198 219 144 141 123 97 56 37 47 60 74 74 118 105 90 84 84 93 94
229 221 210 208 215 220 221 200 202 199 185 172 143 136 144 153 143 135 164 154 200 219 197 192 195 173 174 186 151 181 210 173 246 151 200 234 92 140 136 131 93 62 42 62 71 76 85 83 78 78 90 92 95 95
221 217 218 220 221 218 206 202 200 194 149 142 148 156 156 154 163 166 174 189 191 193 179 169 148 167 168 204 156 164 205 235 101 180 244 101 144 142 145 134 106 102 95 78 74 75 89 94 98 89 90 89 94 100
226 228 225 224 225 217 201 202 198 187 162 139 173 134 180 187 216 185 188 169 163 166 161 146 140 155 153 176 167 193 167 184 177 238 224 137 149 150 145 133 115 102 96 95 95 95 93 84 79 79 79 84 80 81
238 229 229 225 217 209 202 194 186 187 161 139 144 186 196 208 120 140 135 124 143 158 155 115 89 100 69 141 41 129 164 229 228 232 142 150 152 146 129 117 109 103 99 98 94 91 89 88 91 98 94 87 81 69
188 177 183 175 177 181 184 181 180 167 101 113 141 108 151 141 151 145 143 143 152 160 149 120 117 137 218 165 165 211 175 222 150 143 147 148 145 139 133 128 123 119 116 114 110 107 105 101 99 97 94 92 86 69
139 117 153 158 150 148 163 155 152 88 92 86 81 129 164 120 157 129 135 145 159 163 166 132 132 191 111 102 226 204 213 149 147 137 142 144 143 141 139 136 131 125 124 125 124 119 114 109 104 97 84 84 75 45
128 138 154 150 152 145 135 105 88 88 90 105 123 130 112 124 132 130 133 148 153 163 146 150 127 123 177 181 221 174 138 133 135 135 137 139 139 134 131 134 135 135 136 132 125 121 123 119 95 42 354 332 324 321
133 134 144 129 132 130 86 66 70 99 96 106 104 111 107 96 99 117 132 149 144 129 126 87 80 124 184 198 163 151 147 146 142 138 135 134 136 140 143 147 147 143 137 138 153 165 191 300 312 310 304 303 305 299
146 143 146 142 144 83 88 86 92 93 105 110 111 93 85 91 102 95 119 130 129 95 57 49 117 146 137 150 154 151 150 150 147 140 141 145 145 146 145 142 149 164 178 179 174 170 260 286 295 301 306 306 302 293
116 110 116 136 89 79 86 98 80 99 117 104 119 91 88 96 80 81 76 91 94 50 83 94 112 116 118 126 136 142 144 148 149 153 159 157 157 148 139 144 158 161 174 182 203 280 288 285 295 304 309 310 308 303
121 117 101 78 84 78 73 59 106 105 80 119 97 87 90 72 58 53 68 55 63 77 127 138 129 128 131 131 132 134 134 140 136 134 141 153 162 173 179 176 190 207 221 246 256 273 286 296 304 309 313 314 314 314
120 110 84 83 89 79 122 120 90 81 98 119 104 86 73 90 101 101 77 71 91 132 140 135 133 136 135 136 140 138 132 139 131 137 142 147 150 155 168 191 204 236 256 264 275 284 295 305 310 316 321 315 308 303
103 74 66 76 80 114 131 88 96 100 112 104 99 109 127 133 135 66 91 110 142 146 147 145 148 143 143 147 153 153 151 153 158 153 144 143 144 140 142 156 227 280 301 313 306 302 306 309 310 314 319 323 317 310
90 20 55 40 77 88 76 40 30 73 103 137 100 109 171 142 91 87 161 158 162 157 155 154 157 158 151 147 145 146 143 141 156 155 156 161 173 359 302 303 304 303 302 301 301 301 301 303 303 301 298 301 310 317
71 19 46 76 21 100 165 105 153 149 120 93 122 120 139 102 91 182 193 171 170 169 166 165 162 156 153 154 153 151 147 140 142 145 164 205 266 290 294 294 294 293 297 299 302 304 304 304 301 293 287 289 296 300
81 5 50 50 102 101 79 75 92 90 91 138 161 107 91 99 190 246 156 165 175 167 162 159 160 166 163 161 161 159 156 154 164 223 292 342 336 325 322 319 312 307 304 306 312 317 320 320 317 309 301 299 298 299
82 41 109 18 66 45 105 66 57 78 133 79 114 73 122 156 161 155 157 166 165 161 157 152 148 153 154 152 155 164 175 182 203 227 343 345 339 339 337 335 336 335 334 331 331 332 332 332 332 332 329 327 323 318
58 67 86 44 56 50 42 69 92 68 38 89 109 125 126 95 125 139 149 157 163 165 162 165 161 158 160 160 166 168 163 169 213 291 315 326 330 330 331 336 340 339 336 335 336 338 338 337 335 331 329 327 324 320
71 52 95 69 66 36 12 30 70 97 95 101 103 109 98 100 120 140 144 150 159 169 172 170 161 157 162 161 160 161 169 189 302 336 334 337 343 344 341 342 345 347 349 349 347 342 341 342 339 337 333 330 327 323
82 81 77 69 87 108 93 84 83 81 79 92 120 119 115 111 111 132 149 157 161 165 168 166 166 160 165 164 166 163 156 105 2 354 357 4 5 4 6 8 10 6 358 353 348 344 342 339 335 332 329 326 324 320
57 81 124 108 139 159 122 83 73 78 83 101 91 117 116 98 88 132 140 145 152 158 159 165 176 173 167 159 154 140 92 32 7 6 10 10 15 19 18 11 4 360 355 349 344 341 339 337 335 332 329 326 324 322
96 100 100 107 127 171 163 140 103 97 73 89 121 101 101 99 125 146 163 163 156 164 174 171 166 161 156 150 137 110 62 28 29 29 31 38 30 20 14 6 358 351 347 343 340 338 336 334 332 329 327 325 324 323